Location: �perlecques
(50.8057°N, 2.1521°E)
Time: 10:07:17
(UTC+00:00)

Oscar 11 - Pass Details

Date: 26 September 2021
Orbit: 612 x 625 km, 97.6° (Epoch: 15 October)

Event Time Altitude Azimuth Distance (km) Brightness Sun altitude
Rises 04:43:38 0° 22° (NNE) 2,892 11.0 -10.3°
Reaches altitude 10° 04:46:06 10° 35° (NE) 1,981 10.3 -9.9°
Maximum altitude 04:49:48 27° 94° (E) 1,176 9.5 -9.4°
Drops below altitude 10° 04:53:28 10° 153° (SSE) 1,969 9.9 -8.8°
Sets 04:55:54 0° 165° (SSE) 2,869 10.6 -8.4°
